Location: Mohawk View
(42.7837°N, 73.7885°W)
Time: 07:31:02
(UTC+00:00)

Spot 2 Rocket - Pass Details

Date: 17 June 2021
Orbit: 757 x 772 km, 98.5° (Epoch: 03 August)

Event Time Altitude Azimuth Distance (km) Brightness Sun altitude
Exits shadow 02:18:27 19° 168° (SSE) 1,747 4.8 -14.5°
Maximum altitude 02:22:07 84° 257° (WSW) 772 3.5 -14.9°
Drops below altitude 10° 02:27:13 10° 345° (NNW) 2,311 7.1 -15.5°
Sets 02:29:33 0° 346° (NNW) 3,244 8.1 -15.7°
